Tracking 19575 objects as of 20-Feb-2019
HD Live streaming from Space Station
objects crossing your sky now

COSMOS 1818 COOLANT

Track COSMOS 1818 COOLANT now!
10-day predictions


NORAD ID: 36132
Int'l Code: 1987-011K
Perigee: 770.4 km
Apogee: 801.8 km
Inclination: 65.0 °
Period: 100.4 minutes
Semi major axis: 7157 km
RCS: 0.0033 m2 (small)
Launch date: February 1, 1987
Source: Commonwealth of Independent States (former USSR) (CIS)
Launch site: TYURATAM MISSILE AND SPACE COMPLEX (TTMTR)

Note: This is SATELLITE DEBRIS
aabbcc
Your satellite tracking list
Your tracking list is empty




NASA's NSSDC Master Catalog

Two Line Element Set (TLE):
1 36132U 87011K   19021.21144496  .00000024  00000-0  44550-4 0  9994
2 36132  65.0102 241.1524 0021927 266.2609  93.5969 14.33827164521314
Source of the keplerian elements: AFSPC